Hourly Weather Cavalcante

Today, 16 June, Wednesday

Time Temperature Precipitation Wind Pressure Humidity
00:00 +19°C° 0.1 mm 0 mps 692 mmHg 79%
01:00 +19°C° 0 mm 0 mps 691 mmHg 79%
02:00 +19°C° 0 mm 0 mps 691 mmHg 79%
03:00 +21°C° 0 mm 1 mps 691 mmHg 80%
04:00 +20°C° 0 mm 1 mps 691 mmHg 80%
05:00 +20°C° 0 mm 1 mps 691 mmHg 81%
06:00 +20°C° 0 mm 1 mps 691 mmHg 81%
07:00 +22°C° 0 mm 1 mps 692 mmHg 74%
08:00 +24°C° 0 mm 1 mps 693 mmHg 67%
09:00 +25°C° 0 mm 1 mps 693 mmHg 60%
10:00 +27°C° 0.1 mm 1 mps 693 mmHg 54%
11:00 +29°C° 0.1 mm 1 mps 693 mmHg 48%
12:00 +30°C° 0.1 mm 1 mps 693 mmHg 42%
13:00 +29°C° 0.1 mm 1 mps 692 mmHg 46%
14:00 +28°C° 0.1 mm 1 mps 692 mmHg 50%
15:00 +27°C° 0.1 mm 1 mps 691 mmHg 53%
16:00 +26°C° 0 mm 1 mps 691 mmHg 55%
17:00 +25°C° 0 mm 1 mps 691 mmHg 57%
18:00 +25°C° 0 mm 1 mps 691 mmHg 58%
19:00 +24°C° 0 mm 1 mps 691 mmHg 59%
20:00 +24°C° 0 mm 1 mps 692 mmHg 60%
21:00 +24°C° 0 mm 1 mps 692 mmHg 60%
22:00 +23°C° 0 mm 1 mps 692 mmHg 61%
23:00 +23°C° 0 mm 1 mps 692 mmHg 62%

Tomorrow, 17 June, Thursday

Time Temperature Precipitation Wind Pressure Humidity
00:00 +23°C° 0 mm 1 mps 692 mmHg 63%
01:00 +22°C° 0 mm 1 mps 691 mmHg 62%
02:00 +22°C° 0 mm 1 mps 691 mmHg 62%
03:00 +22°C° 0 mm 1 mps 691 mmHg 62%
04:00 +22°C° 0 mm 1 mps 691 mmHg 62%
05:00 +22°C° 0 mm 1 mps 691 mmHg 62%
06:00 +22°C° 0 mm 1 mps 691 mmHg 63%
07:00 +24°C° 0 mm 1 mps 692 mmHg 58%
08:00 +25°C° 0 mm 1 mps 693 mmHg 53%
09:00 +27°C° 0 mm 1 mps 694 mmHg 49%
10:00 +28°C° 0 mm 1 mps 694 mmHg 46%
11:00 +29°C° 0 mm 1 mps 694 mmHg 44%
12:00 +29°C° 0 mm 1 mps 694 mmHg 41%
13:00 +29°C° 0 mm 1 mps 693 mmHg 42%
14:00 +29°C° 0 mm 1 mps 692 mmHg 42%
15:00 +29°C° 0 mm 1 mps 692 mmHg 42%
16:00 +27°C° 0 mm 1 mps 692 mmHg 46%
17:00 +26°C° 0 mm 1 mps 692 mmHg 49%
18:00 +25°C° 0 mm 1 mps 692 mmHg 53%
19:00 +24°C° 0 mm 1 mps 692 mmHg 52%
20:00 +24°C° 0 mm 1 mps 692 mmHg 52%
21:00 +23°C° 0 mm 1 mps 692 mmHg 52%
22:00 +23°C° 0 mm 1 mps 692 mmHg 51%
23:00 +23°C° 0 mm 1 mps 692 mmHg 51%

Day after tomorrow, 18 June, Friday

Time Temperature Precipitation Wind Pressure Humidity
00:00 +23°C° 0 mm 1 mps 692 mmHg 51%
01:00 +22°C° 0 mm 1 mps 692 mmHg 53%
02:00 +21°C° 0 mm 1 mps 692 mmHg 55%
03:00 +21°C° 0 mm 1 mps 691 mmHg 57%
04:00 +21°C° 0 mm 1 mps 692 mmHg 57%
05:00 +21°C° 0 mm 1 mps 692 mmHg 57%
06:00 +20°C° 0 mm 1 mps 692 mmHg 57%
07:00 +21°C° 0 mm 2 mps 693 mmHg 51%
08:00 +24°C° 0 mm 2 mps 694 mmHg 46%
09:00 +26°C° 0 mm 2 mps 695 mmHg 40%
10:00 +28°C° 0 mm 3 mps 695 mmHg 38%
11:00 +29°C° 0 mm 3 mps 695 mmHg 35%
12:00 +30°C° 0 mm 3 mps 695 mmHg 33%
13:00 +31°C° 0 mm 3 mps 694 mmHg 33%
14:00 +31°C° 0 mm 2 mps 694 mmHg 32%
15:00 +31°C° 0 mm 2 mps 693 mmHg 32%
16:00 +29°C° 0 mm 2 mps 693 mmHg 37%
17:00 +28°C° 0 mm 2 mps 693 mmHg 41%
18:00 +26°C° 0 mm 2 mps 693 mmHg 46%
19:00 +25°C° 0 mm 2 mps 693 mmHg 48%
20:00 +24°C° 0 mm 2 mps 693 mmHg 49%
21:00 +24°C° 0 mm 1 mps 693 mmHg 51%
22:00 +23°C° 0 mm 2 mps 693 mmHg 52%
23:00 +23°C° 0 mm 2 mps 693 mmHg 53%

19 June, Saturday

Time Temperature Precipitation Wind Pressure Humidity
00:00 +23°C° 0 mm 2 mps 693 mmHg 55%
01:00 +23°C° 0 mm 2 mps 693 mmHg 56%
02:00 +21°C° 0 mm 2 mps 692 mmHg 57%
03:00 +22°C° 0 mm 1 mps 692 mmHg 59%
04:00 +21°C° 0 mm 2 mps 692 mmHg 60%
05:00 +20°C° 0 mm 2 mps 693 mmHg 62%
06:00 +20°C° 0 mm 2 mps 693 mmHg 64%
07:00 +21°C° 0 mm 2 mps 694 mmHg 60%
08:00 +24°C° 0 mm 3 mps 695 mmHg 55%
09:00 +25°C° 0 mm 3 mps 695 mmHg 51%
10:00 +27°C° 0 mm 3 mps 695 mmHg 47%
11:00 +28°C° 0 mm 3 mps 695 mmHg 44%
12:00 +29°C° 0 mm 4 mps 695 mmHg 40%
13:00 +30°C° 0 mm 3 mps 694 mmHg 39%
14:00 +30°C° 0 mm 2 mps 694 mmHg 37%
15:00 +31°C° 0 mm 2 mps 693 mmHg 35%
16:00 +29°C° 0 mm 2 mps 693 mmHg 40%
17:00 +28°C° 0 mm 1 mps 693 mmHg 44%
18:00 +26°C° 0 mm 1 mps 693 mmHg 48%
19:00 +25°C° 0 mm 1 mps 693 mmHg 48%
20:00 +25°C° 0 mm 1 mps 693 mmHg 49%
21:00 +25°C° 0 mm 1 mps 693 mmHg 50%
22:00 +25°C° 0 mm 1 mps 693 mmHg 50%
23:00 +24°C° 0 mm 1 mps 693 mmHg 50%

20 June, Sunday

Time Temperature Precipitation Wind Pressure Humidity
00:00 +24°C° 0 mm 1 mps 693 mmHg 50%
01:00 +24°C° 0 mm 1 mps 693 mmHg 51%
02:00 +24°C° 0 mm 1 mps 693 mmHg 52%
03:00 +23°C° 0 mm 1 mps 693 mmHg 54%
04:00 +23°C° 0 mm 1 mps 693 mmHg 55%
05:00 +22°C° 0 mm 1 mps 693 mmHg 56%
06:00 +21°C° 0 mm 2 mps 693 mmHg 57%
07:00 +23°C° 0 mm 2 mps 694 mmHg 53%
08:00 +24°C° 0 mm 2 mps 694 mmHg 50%
09:00 +26°C° 0 mm 2 mps 695 mmHg 46%
10:00 +27°C° 0 mm 2 mps 695 mmHg 42%
11:00 +29°C° 0 mm 2 mps 695 mmHg 38%
12:00 +31°C° 0 mm 2 mps 695 mmHg 34%
13:00 +31°C° 0 mm 2 mps 694 mmHg 32%
14:00 +32°C° 0 mm 1 mps 694 mmHg 30%
15:00 +33°C° 0 mm 1 mps 693 mmHg 28%
16:00 +30°C° 0 mm 1 mps 693 mmHg 32%
17:00 +28°C° 0 mm 1 mps 692 mmHg 36%
18:00 +26°C° 0 mm 1 mps 692 mmHg 40%
19:00 +26°C° 0 mm 1 mps 693 mmHg 41%
20:00 +25°C° 0 mm 1 mps 693 mmHg 42%
21:00 +24°C° 0 mm 1 mps 693 mmHg 43%
22:00 +24°C° 0 mm 1 mps 693 mmHg 43%
23:00 +24°C° 0 mm 1 mps 693 mmHg 43%

21 June, Monday

Time Temperature Precipitation Wind Pressure Humidity
00:00 +24°C° 0 mm 1 mps 693 mmHg 43%
01:00 +23°C° 0 mm 1 mps 693 mmHg 45%
02:00 +23°C° 0 mm 1 mps 692 mmHg 47%
03:00 +21°C° 0 mm 2 mps 692 mmHg 49%
04:00 +22°C° 0 mm 1 mps 692 mmHg 50%
05:00 +21°C° 0 mm 1 mps 692 mmHg 51%
06:00 +21°C° 0 mm 1 mps 692 mmHg 53%
07:00 +23°C° 0 mm 2 mps 693 mmHg 47%
08:00 +26°C° 0 mm 2 mps 694 mmHg 42%
09:00 +28°C° 0 mm 2 mps 695 mmHg 36%
10:00 +29°C° 0 mm 2 mps 695 mmHg 33%
11:00 +30°C° 0 mm 3 mps 695 mmHg 30%
12:00 +33°C° 0 mm 3 mps 695 mmHg 28%
13:00 +33°C° 0 mm 3 mps 694 mmHg 26%
14:00 +34°C° 0 mm 3 mps 693 mmHg 24%
15:00 +34°C° 0 mm 3 mps 693 mmHg 23%
16:00 +31°C° 0 mm 2 mps 692 mmHg 27%
17:00 +28°C° 0 mm 2 mps 692 mmHg 31%
18:00 +26°C° 0 mm 2 mps 692 mmHg 35%
19:00 +25°C° 0 mm 2 mps 692 mmHg 36%
20:00 +25°C° 0 mm 2 mps 692 mmHg 37%
21:00 +24°C° 0 mm 1 mps 693 mmHg 38%
22:00 +24°C° 0 mm 1 mps 692 mmHg 39%
23:00 +24°C° 0 mm 1 mps 692 mmHg 40%
Show more

We Need Your Consent

Meteoprog and our Service Providers may store and access personal data such as cookies, device identifiers or other similar technologies on your device and process such data to personalise content and ads, as well as provide social media features and to analyse the traffic.

  • Store and/or access information on your device

    Cookies, device identifiers or other information can be stored or accessed on your device for the purposes indicated above.

  • Personalised ads and content, ad and content measurement, audience insights, and products development

    Ads and content can be personalised based on a profile. More data can be added to better personalise ads and content. Ad and content performance can be measured. Insights about the audience who saw the ads and content can be derived. Such data can be used to develop or improve user’s experience, systems and software.

By clicking ‘I Agree’ you will allow the use of indicated cookies, device identifiers, web beacons or other similar technologies. Your settings can be changed in the browser on your device.

For certain purposes, legitimate interests may be relied on, rather than consent. You can read more about this in our Privacy and Cookie Policy.